Regional Weather Roundup
Issued by NWS

Home | Current Version | Previous Version | Text Only | Print | Product List | Glossary On
Versions: 1 2 3 4 5 6 7 8 9 10 11 12 13 14 15 16 17 18 19 20 21 22 23 24 25 26 27 28 29 30 31 32 33 34 35 36 37 38 39 40 41 42 43 44 45 46 47 48 49 50
000
ASUS45 KBOU 282307
RWRCO

WEATHER ROUNDUP FOR COLORADO
NATIONAL WEATHER SERVICE DENVER/BOULDER CO
500 PM MDT FRI AUG 28 2015

NOTE: "FAIR" INDICATES FEW OR NO CLOUDS BELOW 12000 FEET WITH NO
SIGNIFICANT WEATHER AND/OR OBSTRUCTIONS TO VISIBILITY.

COZ001>005-013-030-031-290000-
...NORTHWEST COLORADO...

CITY           SKY/WX    TMP DP  RH WIND       PRES   REMARKS
CRAIG          SUNNY     82  40  22 S6        30.26F
HAYDEN         NOT AVBL
MEEKER         PTSUNNY   81  39  22 S6        30.27F
MOUNT WERNER   NOT AVBL
STEAMBOAT SPGS SUNNY     75  43  31 SW6       30.31F
WALDEN         MOSUNNY   64  37  36 W6        30.42R
$$

COZ006>008-011-290000-
...WEST CENTRAL VALLEYS...

CITY           SKY/WX    TMP DP  RH WIND       PRES   REMARKS
GRAND JUNCTION SUNNY     87  41  19 W10       30.14F
MONTROSE       SUNNY     83  43  24 W12       30.23F
EAGLE          MOSUNNY   79  37  22 S8        30.29F
RIFLE          SUNNY     84  39  20 E3        30.20F
DELTA          SUNNY     88  44  22 W7        30.18F
NUCLA          SUNNY     86  32  14 CALM      30.25F
$$

COZ017>023-064>068-290000-
...SOUTHWEST COLORADO...

CITY           SKY/WX    TMP DP  RH WIND       PRES   REMARKS
DURANGO        SUNNY     83  34  17 SW3       30.22F
CORTEZ         SUNNY     87  33  14 NW13      30.17F
PAGOSA SPRINGS SUNNY     81  25  13 SW7       30.31S
TELLURIDE      SUNNY     71  33  25 NW6       30.46F
WOLF CREEK PAS MOSUNNY   54  30  40 CALM      30.69S
$$

COZ009-010-012-014-032>034-037-058>063-290000-
...CENTRAL COLORADO...

CITY           SKY/WX    TMP DP  RH WIND       PRES   REMARKS
ASPEN          SUNNY     75  40  28 NW8       30.37S
BUENA VISTA    MOSUNNY   78  24  13 NW8G16    30.34F
COPPER MTN     PTSUNNY   59  32  36 W17G23    30.69S
BERTHOUD PASS  FAIR      50  36  57 N10       30.74S
COTTONWOOD PAS MOSUNNY   70  23  17 CALM      30.51S
GUNNISON       MOSUNNY   75  39  27 SW8       30.37S
KREMMLING      MOSUNNY   77  32  19 SW3       30.36F
LEADVILLE      MOSUNNY   63  29  27 NW8       30.52S
MONARCH PASS   CLOUDY    55  34  44 E15       30.78S
SALIDA         MOSUNNY   80  31  17 W7        30.38S
SUNLIGHT       CLOUDY    61  43  51 CALM      30.64S
WILKERSON PASS MOSUNNY   55  36  47 NE5       30.66R
$$

COZ069>075-290000-
...SAN LUIS VALLEY/SANGRE DE CRISTO MOUNTAINS...

CITY           SKY/WX    TMP DP  RH WIND       PRES   REMARKS
ALAMOSA        SUNNY     81  26  13 VRB7      30.30F
LA VETA PASS   MOSUNNY   63  39  42 NE8       30.54S
SAGUACHE       PTSUNNY   73  36  25 NE14      30.35R
$$

COZ035-036-038>040-290000-
...NORTHERN COLORADO FRONT RANGE...

CITY           SKY/WX    TMP DP  RH WIND       PRES   REMARKS
DENVER INTL AP MOSUNNY   85  40  20 NW9       30.20S
DMNS CITY PARK   N/A     82  40  22 NE5G17    30.20S
AURORA         MOSUNNY   82  42  24 N9        30.23S
FRONT RANGE AP MOSUNNY   82  39  21 N12G18    30.22S
ERIE MUNI ARPT MOSUNNY   84  37  18 N6        30.19S
BOULDER MUN AP MOSUNNY   82  43  24 N7        30.20R
CENTENNIAL     MOSUNNY   81  43  26 N9        30.24S
BROOMFIELD     PTSUNNY   82  41  23 N7        30.23S
FORT COLLINS   MOSUNNY   86  43  22 E7        30.16S
LONGMONT       MOSUNNY   86  40  19 W5        30.20S
$$

COZ041-046-047-076>085-087-088-290000-
...PIKES PEAK/PALMER DIVIDE AND SOUTHERN FOOTHILLS...

CITY           SKY/WX    TMP DP  RH WIND       PRES   REMARKS
COLO. SPRINGS  MOSUNNY   79  41  25 NE13G20   30.26R
A. F. ACADEMY  MOSUNNY   78  41  26 N13       30.27S
ELLICOTT       MOSUNNY  N/A N/A N/A N13       30.24S
FALCON         MOSUNNY   77  40  26 MISG      30.32R
FORT CARSON    PTSUNNY   82  44  27 E6        30.23R
LIMON          SUNNY     82  44  26 N13G18    30.19F
MONUMENT HILL  SUNNY     73  37  27 N12G17    30.33R
TRINIDAD       MOSUNNY   85  44  23 E10       30.21F
$$

COZ042>045-048>051-090-091-290000-
...NORTHEAST COLORADO...

CITY           SKY/WX    TMP DP  RH WIND       PRES   REMARKS
GREELEY ARPT   MOSUNNY   84  37  18 E7        30.16S
AKRON          SUNNY     86  33  15 N14       30.14S
BURLINGTON     SUNNY     86  42  21 N15G24    30.09S
WRAY           MOSUNNY   91  41  17 N15G21    30.06S
STERLING       SUNNY     88  41  19 N13       30.08S
HOLYOKE        SUNNY     90  45  20 N16G22    30.07R
FORT MORGAN    SUNNY     87  32  14 N10G24    30.14S
$$

COZ086-089-092>099-290000-
...SOUTHEAST COLORADO...

CITY           SKY/WX    TMP DP  RH WIND       PRES   REMARKS
PUEBLO         MOSUNNY   90  44  20 NE12      30.14S
LA JUNTA       SUNNY     92  46  20 N6        30.11R
LAMAR          MOSUNNY   91  51  25 VRB5      30.03F
SPRINGFIELD      N/A     88  49  25 NW7       30.10S
$$



USA.gov is the U.S. government's official web portal to all federal, state and local government web resources and services.